Regional Weather Roundup
Issued by NWS Upton, NY

Current Version | Previous Version | Graphics & Text | Print | Product List | Glossary Off
Versions: 1 2 3 4 5 6 7 8 9 10 11 12 13 14 15 16 17 18 19 20 21 22 23 24 25 26 27

000
ASUS41 KOKX 211405
RWROKX

Regional Weather Roundup
National Weather Service New York NY
900 AM EST WED FEB 21 2018

Note: "FAIR" indicates few or no clouds below 12,000 feet with no
significant weather and/or obstructions to visibility.

NYZ071-072-176-178-NJZ106-104-211500-
New York City Metro Area

CITY           SKY/WX    TMP DP  RH WIND       PRES   REMARKS
Central Park   CLOUDY    63  58  83 VRB5      30.31F
Bronx Bot Gard   N/A     63  57  82 CALM      30.30S
Bronx Lehman C   N/A     63  57  82 SW12        N/A
LaGuardia Arpt CLOUDY    61  57  87 SW9       30.29F
Queens College   N/A     54  52  94 S5          N/A
Kennedy Intl   FOG       49  49 100 S8        30.32S VSB 1/8
Breezy Point     N/A     45 N/A N/A S6          N/A
Brooklyn Coll    N/A     52  50  93 E1          N/A
Staten Island    N/A     61  59  94 SW10        N/A
Newark/Liberty CLOUDY    63  59  87 SW16      30.29S
Teterboro      CLOUDY    63  59  87 SW7       30.28S
$$

NYZ177-179-078>081-211500-
Long Island New York

CITY           SKY/WX    TMP DP  RH WIND       PRES   REMARKS
Jones Beach      N/A     45 N/A N/A S10         N/A
Wantagh          N/A     48  48 100 S8          N/A
Hempstead        N/A     50  48  93 S3        30.34F
Matinecock Pt    N/A     59 N/A N/A SW16G22     N/A
Farmingdale    FOG       51  51 100 SW6       30.31F VSB 1/8
MacArthur/ISP  FOG       51  51 100 SW9       30.31F VSB 1/8
Shirley        FOG       51  51 100 SW7       30.32F VSB 1
Mt Sinai Harb    N/A     54 N/A N/A S7          N/A
Westhampton    FOG       49  49 100 SW12G20   30.33F VSB 1/2
East Hampton   FOG       47  47  99 SW12      30.32S VSB 1/4
Southold         N/A     54  54 100 SW7         N/A
Montauk          N/A     49  49 100 SW8       30.33F
$$

NYZ052-065-067-211500-
Hudson Valley

CITY           SKY/WX    TMP DP  RH WIND       PRES   REMARKS
White Plains   PTSUNNY   55  54  96 S3        30.28F FOG
Larchmont Harb   N/A     46 N/A N/A S13         N/A
Croton On Huds   N/A     57 N/A N/A S7          N/A
Somers           N/A     59  55  88 SW7         N/A
Brewster         N/A     57  57 100 S3          N/A
Newburgh       CLOUDY    59  59 100 W12       30.27F
Montgomery     CLOUDY    58  55  90 SW13      30.25S
Otisville        N/A     57  55  94 SW6         N/A
Warwick          N/A     63  55  77 W6          N/A
Suffern          N/A     59  57  94 S5          N/A
Poughkeepsie   CLOUDY    55  51  86 CALM      30.26S FOG
Albany         CLOUDY    57  53  86 S13       30.19R
$$

NJZ001-105-106-008-010-013-015-019>022-104-211500-
New Jersey

CITY           SKY/WX    TMP DP  RH WIND       PRES   REMARKS
Newark/Liberty CLOUDY    63  59  87 SW16      30.29S
Teterboro      CLOUDY    63  59  87 SW7       30.28S
Caldwell       CLOUDY    62  59  90 VRB5      30.29S
Somerville     CLOUDY    62  60  93 VRB5      30.29S
Linden         CLOUDY    64  59  86 W7        30.30S
Perth Amboy      N/A     61 N/A N/A W13         N/A
Sussex         CLOUDY    58  57  97 SW7       30.28R
Andover          N/A     59  57  93 S6        30.29S
Trenton        CLOUDY    62  60  93 SW9       30.31S FOG
Millville      CLOUDY    62  60  93 VRB6      30.36R
Atlantic City  CLOUDY    58  58 100 S7        30.36S
Wrightstown    CLOUDY    64  61  88 SW14      30.30
Toms River     CLOUDY    61  59  93 SW8       30.34F
Belmar         CLOUDY    62  59  90 S10       30.34R
$$

PAZ047>061-062-071-211500-
Eastern Pennsylvania

CITY           SKY/WX    TMP DP  RH WIND       PRES   REMARKS
Philadelphia   CLOUDY    62  60  93 SW12      30.33S
Allentown      FOG       50  48  93 CALM      30.31R VSB 1/2
Scranton       FAIR      59  55  87 SW5       30.27R
$$

CTZ002-004>006-009-010-012-RIZ004-006-007-MAZ004-011-015-211500-
Southern New England

 In CT

CITY           SKY/WX    TMP DP  RH WIND       PRES   REMARKS
Bradley Intl   PTSUNNY   60  57  89 S13       30.24F
Hartford       CLOUDY    60  56  86 S9        30.26F
Danbury        CLOUDY    61  57  87 SW9       30.28F
Wtrbury/Oxford CLOUDY    57  56  96 SW7       30.28F FOG
Norwalk Harbor   N/A     46 N/A N/A SW2         N/A
Bridgeport     FOG       48  47  96 SW5       30.29F VSB 1/4
Meriden        CLOUDY    54  54 100 S10       30.28S FOG
New Haven      FOG       48  47  96 SW3       30.29F VSB 1/4
Chester        FOG       55  55 100 SW10      30.29S VSB<1/4
Groton         FOG       50  49  96 SW5       30.30S VSB<1/4
Willimantic    CLOUDY    60  56  86 SW6       30.27F

 In RI

CITY           SKY/WX    TMP DP  RH WIND       PRES   REMARKS
Providence     PTSUNNY   60  57  89 SW15      30.27S
Block Island   NOT AVBL
Westerly       FOG       49  49 100 SW8       30.31S VSB<1/4

In MA

CITY           SKY/WX    TMP DP  RH WIND       PRES   REMARKS
Boston         CLOUDY    61  57  87 SW20G26   30.20S
Worcester      CLOUDY    55  54  96 SW14G23   30.23S
Westfield      PTSUNNY   56  56 100 S8        30.22
Provincetown   LGT RAIN  45  45 100 SW18G25   30.24F VSB 1/4
Nantucket      FOG       47  47 100 SW20      30.33R VSB 1/4
$$

ANZ330-335-338-340-345-350-353-355-211500-
Coastal Marine Observations


STATION/POSITION TIME  SKY/WX   TEMP    WIND        PRES    VSBY  WAVE
                                AIR SEA DIR/SP/G                  HT/PER
                 (UTC)          (F)     (DEG/KT/KT) (MB)    (MI)  (FT/S)
NY Harb Entrance 1250            45 41  210/ 12/ 12 1026.6          4/ 6
20 S Fire Island 1350            45 42  210/ 17/ 21 1027.1          5/ 5
15 E Barnegat Li 1330               41                N/A           4/ 5
Hudson Canyon    1250            52 47  210/ 17/ 21 1028.3          5/ 5
Kings Point      1330            51 38  200/ 12/ 13 1026.9
Execution Rocks  NOT AVBL
Western LI Sound NOT AVBL
Central LI Sound 1315            44     210/  8/ 10   N/A           0
Robbins Reef     1330            55     180/ 11/ 14 1026.7
$$


>>>>>>>>>>>>>>>>>>>>>>>>>>>> KEY <<<<<<<<<<<<<<<<<<<<<<<<<<<
>                                                          <
>     SKY/WX - Sky Condition/Present Weather               <
>     TMP    - Temperature in Fahrenheit                   <
>     DP     - Dew Point in Fahrenheit                     <
>     RH     - Relative Humidity in Percent                <
>     WIND   - Direction (from) and Speed in MPH           <
>     PRES   - Mean Sea Level Pressure (inches of Hg)      <
>     WCI    - Wind Chill Index                            <
>     VSB    - Visibility in Miles                         <
>     HX     - Heat Index                                  <
>     TC     - Temperature in Celsius                      <
>     VRB    - Varibale Wind Direction                     <
>                                                          <
>>>>>>>>>>>>>>>>>>>>>>>>>>>> KEY <<<<<<<<<<<<<<<<<<<<<<<<<<<




USA.gov is the U.S. government's official web portal to all federal, state and local government web resources and services.